This demonstration page uses our WeatherBlox Daily Observations layout. Learn more.

Left ArrowRight Arrow

Hourly Observations for June 24, 2016

Temp ( °F °C ) Dew Point ( °F °C ) Humidity (%) Winds ( mph kmh ) Pressure ( in mb ) Visibility ( mi km ) Precip ( " mm )
12:52 am 00:52 Cloudy with Light Rain 72 22.2 68 20 87 87 WSW 8 13 30.02 1017 10 16 0.01 0.25
1:52 am 01:52 Mostly Cloudy 71 21.7 69 20.6 94 94 SW 5 7 29.97 1015 10 16 0.03 0.76
2:44 am 02:44 Cloudy with Light Rain 72 22 68 20 88 88 WSW 7 11 30.00 1016 10 16 0.00 0.00
2:52 am 02:52 Cloudy with Light Rain 71 21.7 69 20.6 94 94 VRB 5 7 29.97 1015 10 16 0.02 0.51
3:52 am 03:52 Cloudy 71 21.7 69 20.6 94 94 N 7 11 29.98 1015 10 16 0.02 0.51
4:00 am 04:00 Mostly Cloudy 72 22 70 21 94 94 NNE 7 11 30.00 1016 10 16 0.00 0.00
4:10 am 04:10 Partly Cloudy 72 22 68 20 88 88 NNE 8 13 30.00 1016 10 16 0.00 0.00
4:52 am 04:52 Clear 71 21.7 68 20 90 90 SE 6 9 29.99 1016 10 16 0.00 0.00
5:52 am 05:52 Cloudy 71 21.7 69 20.6 94 94 Calm 30.02 1017 10 16 0.00 0.03
6:11 am 06:11 Cloudy 71 21.7 69 20.6 94 94 W 8 13 30.06 1018 10 16 0.00 0.00
6:33 am 06:33 Cloudy 71 21.7 69 20.6 94 94 Calm 30.06 1018 10 16 0.00 0.03
6:45 am 06:45 Mostly Cloudy with Light Rain 71 21.7 68 20 90 90 NNW 3 6 30.06 1018 10 16 0.00 0.03
6:52 am 06:52 Cloudy with Light Rain 71 21.7 68 20 90 90 Calm 30.05 1018 8 13 0.00 0.03
7:52 am 07:52 Mostly Cloudy with Light Rain 72 22.2 68 20 87 87 ESE 10 17 30.05 1018 10 16 0.03 0.76
8:52 am 08:52 Sunny 75 23.9 69 20.6 82 82 SE 8 13 30.05 1018 10 16 0.00 0.03
9:52 am 09:52 Cloudy 75 23.9 69 20.6 82 82 S 9 15 30.06 1018 10 16 0.00 0.00
10:39 am 10:39 Cloudy with Nearby Thunderstorms 74 23.3 70 21.1 88 88 SSW 10 17 30.09 1019 6 10 0.04 1.02
10:52 am 10:52 Cloudy with Nearby Thunderstorms 74 23.3 70 21.1 88 88 S 13 20 30.08 1019 10 16 0.05 1.27
10:59 am 10:59 Cloudy with Light Rain 74 23.3 70 21.1 88 88 S 10 17 30.09 1019 10 16 0.00 0.03
11:47 am 11:47 Mostly Cloudy with Nearby Thunderstorms 73 23 70 21 89 89 SSE 9 15 30.09 1019 10 16 0.01 0.25
11:52 am 11:52 Mostly Cloudy with Nearby Thunderstorms 74 23.3 69 20.6 85 85 SSE 10 17 30.07 1018 10 16 0.01 0.25
12:07 pm 12:07 Cloudy with Rain 74 23.3 70 21.1 88 88 SSE 9 15 30.09 1019 9 14 0.01 0.25
12:52 pm 12:52 Partly Cloudy 74 23.3 70 21.1 88 88 ESE 9 15 30.05 1018 10 16 0.05 1.27
1:52 pm 13:52 Mostly Cloudy 77 25 70 21.1 79 79 SSE 13 20 30.04 1017 10 16 0.00 0.00
2:52 pm 14:52 Mostly Sunny 78 25.6 70 21.1 76 76 SSE 10 17 30.03 1017 10 16 0.00 0.00
3:52 pm 15:52 Sunny 83 28.3 72 22.2 70 70 SSE 12 19 30.01 1016 10 16 0.00 0.00
4:52 pm 16:52 Sunny 84 28.9 72 22.2 67 67 S 9 15 29.99 1016 10 16 0.00 0.00
5:52 pm 17:52 Sunny 85 29.4 72 22.2 65 65 SE 12 19 29.98 1015 10 16 0.00 0.00
6:52 pm 18:52 Sunny 84 28.9 71 21.7 65 65 SE 10 17 29.97 1015 10 16 0.00 0.00
7:52 pm 19:52 Sunny 82 27.8 71 21.7 69 69 SE 9 15 29.97 1015 10 16 0.00 0.00
8:52 pm 20:52 Clear 80 26.7 71 21.7 74 74 SSE 9 15 29.97 1015 10 16 0.00 0.00
9:52 pm 21:52 Clear 79 26.1 72 22.2 79 79 SSE 9 15 29.97 1015 10 16 0.00 0.00
10:52 pm 22:52 Clear 79 26.1 72 22.2 79 79 SE 8 13 29.99 1016 10 16 0.00 0.00
11:52 pm 23:52 Clear 79 26.1 72 22.2 79 79 SSE 7 11 30.00 1016 10 16 0.00 0.00

Powered by AerisWeather